"read_dt","SO2 (ppb)","flags","PMT voltage (V)","lamp voltage (V)","lamp intensity (Hz)","internal temp (C)","react chamber temp (C)","sample flow (l/min)","pres (mmHg)","SO2 bkg (ppb)","SO2 coefficient"
2018-06-18 00:00:00,-2.526E-01,4C000000*,-702.6,982.789,90,25.2,44.8,0.407,738.1,2.2,1.050*
2018-06-18 00:01:00,-2.433E-01,4C000000*,-702.6,983.597,89,25.2,44.8,0.407,738.1,2.2,1.050*
2018-06-18 00:02:00,-3.297E-01,4C000000*,-703.0,984.002,89,25.3,45.1,0.407,738.1,2.2,1.050*
2018-06-18 00:03:00,-2.365E-01,4C000000*,-703.0,984.002,91,25.2,44.8,0.407,738.1,2.2,1.050*
2018-06-18 00:04:00,-2.690E-01,4C000000*,-702.6,984.406,90,25.3,45.0,0.407,738.1,2.2,1.050*
2018-06-18 00:05:00,-2.847E-01,4C000000*,-703.0,982.789,88,25.3,45.1,0.407,738.1,2.2,1.050*
2018-06-18 00:06:00,-2.293E-01,4C000000*,-703.0,984.406,89,25.2,44.8,0.407,738.1,2.2,1.050*
2018-06-18 00:07:00,-2.870E-01,4C000000*,-703.0,982.789,91,25.3,45.0,0.407,738.1,2.2,1.050*
2018-06-18 00:08:00,-2.847E-01,4C000000*,-703.0,984.406,91,25.3,44.9,0.407,737.8,2.2,1.050*
2018-06-18 00:09:00,-2.726E-01,4C000000*,-702.6,984.406,90,25.3,44.8,0.407,738.1,2.2,1.050*
2018-06-18 00:10:00,-2.718E-01,4C000000*,-702.6,983.193,89,25.2,45.1,0.407,738.1,2.2,1.050*
2018-06-18 00:11:00,-3.009E-01,4C000000*,-702.6,983.193,89,25.3,44.8,0.407,737.8,2.2,1.050*
2018-06-18 00:12:00,-1.882E-01,4C000000*,-703.0,982.789,90,25.3,44.9,0.407,738.1,2.2,1.050*
2018-06-18 00:13:00,-2.671E-01,4C000000*,-703.0,983.193,89,25.3,45.1,0.407,737.8,2.2,1.050*
2018-06-18 00:14:00,-2.834E-01,4C000000*,-703.0,983.193,90,25.3,44.8,0.407,738.1,2.2,1.050*
2018-06-18 00:15:00,-2.081E-01,4C000000*,-703.0,983.597,89,25.3,44.9,0.407,738.1,2.2,1.050*
2018-06-18 00:16:00,-2.071E-01,4C000000*,-702.6,981.980,91,25.3,45.1,0.407,738.1,2.2,1.050*
2018-06-18 00:17:00,-2.948E-01,4C000000*,-703.0,984.406,90,25.2,44.8,0.407,738.1,2.2,1.050*
2018-06-18 00:18:00,-3.188E-01,4C000000*,-703.0,983.597,90,25.2,45.0,0.407,738.1,2.2,1.050*
2018-06-18 00:19:00,-2.154E-01,4C000000*,-702.6,982.789,90,25.3,44.9,0.407,737.8,2.2,1.050*
2018-06-18 00:20:00,-2.352E-01,4C000000*,-702.6,983.597,90,25.3,44.8,0.407,738.1,2.2,1.050*
2018-06-18 00:21:00,-2.908E-01,4C000000*,-703.0,983.597,90,25.3,45.1,0.407,738.1,2.2,1.050*
2018-06-18 00:22:00,-2.067E-01,4C000000*,-703.0,983.597,89,25.2,44.8,0.407,737.8,2.2,1.050*
2018-06-18 00:23:00,-3.376E-01,4C000000*,-702.6,983.193,88,25.2,44.9,0.407,737.8,2.2,1.050*
2018-06-18 00:24:00,-2.396E-01,4C000000*,-703.0,982.385,90,25.3,45.2,0.407,738.1,2.2,1.050*
2018-06-18 00:25:00,-2.544E-01,4C000000*,-703.0,983.193,89,25.3,44.8,0.407,738.1,2.2,1.050*
2018-06-18 00:26:00,-2.327E-01,4C000000*,-703.0,983.597,90,25.3,45.0,0.407,738.1,2.2,1.050*
2018-06-18 00:27:00,-2.149E-01,4C000000*,-703.0,982.789,90,25.3,45.0,0.407,737.8,2.2,1.050*
2018-06-18 00:28:00,-2.747E-01,4C000000*,-703.4,983.193,90,25.3,44.8,0.407,737.8,2.2,1.050*
2018-06-18 00:29:00,-2.906E-01,4C000000*,-702.6,983.193,88,25.4,45.0,0.407,738.1,2.2,1.050*
2018-06-18 00:30:00,-3.495E-01,4C000000*,-702.6,984.002,89,25.3,45.0,0.407,737.8,2.2,1.050*
2018-06-18 00:31:00,-1.879E-01,4C000000*,-702.6,983.193,90,25.2,44.9,0.407,737.8,2.2,1.050*
2018-06-18 00:32:00,-2.232E-01,4C000000*,-702.6,985.215,90,25.2,45.1,0.407,737.8,2.2,1.050*
2018-06-18 00:33:00,-3.831E-01,4C000000*,-702.6,984.002,89,25.4,44.8,0.407,737.8,2.2,1.050*
2018-06-18 00:34:00,-2.911E-01,4C000000*,-702.6,984.406,91,25.3,44.9,0.407,737.8,2.2,1.050*
2018-06-18 00:35:00,-2.219E-01,4C000000*,-702.6,983.193,90,25.3,45.1,0.407,738.1,2.2,1.050*
2018-06-18 00:36:00,-3.319E-01,4C000000*,-703.0,983.597,89,25.3,44.8,0.407,737.8,2.2,1.050*
2018-06-18 00:37:00,-3.284E-01,4C000000*,-703.4,981.980,89,25.3,44.9,0.407,737.8,2.2,1.050*
2018-06-18 00:38:00,-3.012E-01,4C000000*,-702.6,983.193,89,25.3,45.1,0.407,737.8,2.2,1.050*
2018-06-18 00:39:00,-1.924E-01,4C000000*,-703.0,984.406,91,25.3,44.8,0.407,737.8,2.2,1.050*
2018-06-18 00:40:00,-2.589E-01,4C000000*,-703.0,983.597,91,25.3,45.0,0.407,737.8,2.2,1.050*
2018-06-18 00:41:00,-2.096E-01,4C000000*,-702.6,984.002,91,25.3,45.0,0.407,737.8,2.2,1.050*
2018-06-18 00:42:00,-2.433E-01,4C000000*,-702.6,984.406,89,25.3,44.8,0.407,738.1,2.2,1.050*
2018-06-18 00:43:00,-2.462E-01,4C000000*,-702.6,984.002,90,25.4,45.0,0.407,737.8,2.2,1.050*
2018-06-18 00:44:00,-2.818E-01,4C000000*,-703.0,984.002,89,25.3,44.8,0.407,737.8,2.2,1.050*
2018-06-18 00:45:00,-2.718E-01,4C000000*,-703.0,983.597,90,25.3,44.9,0.407,737.8,2.2,1.050*
2018-06-18 00:46:00,-3.234E-01,4C000000*,-703.0,984.002,90,25.3,45.1,0.407,737.8,2.2,1.050*
2018-06-18 00:47:00,-1.879E-01,4C000000*,-703.0,983.193,90,25.3,44.8,0.407,737.8,2.2,1.050*
2018-06-18 00:48:00,-2.780E-01,4C000000*,-703.4,984.002,89,25.4,44.9,0.407,737.8,2.2,1.050*
2018-06-18 00:49:00,-2.408E-01,4C000000*,-703.0,983.597,89,25.4,45.0,0.407,737.8,2.2,1.050*
2018-06-18 00:50:00,-2.951E-01,4C000000*,-703.0,982.385,89,25.4,44.8,0.407,737.8,2.2,1.050*
2018-06-18 00:51:00,-2.427E-01,4C000000*,-702.6,981.980,90,25.4,45.0,0.407,737.8,2.2,1.050*
2018-06-18 00:52:00,-2.272E-01,4C000000*,-703.0,984.002,90,25.4,45.0,0.407,737.8,2.2,1.050*
2018-06-18 00:53:00,-2.320E-01,4C000000*,-703.0,982.385,91,25.3,44.8,0.407,737.8,2.2,1.050*
2018-06-18 00:54:00,-2.844E-01,4C000000*,-702.6,983.597,90,25.4,45.0,0.407,737.8,2.2,1.050*
2018-06-18 00:55:00,-2.845E-01,4C000000*,-703.4,982.789,89,25.4,44.8,0.407,737.8,2.2,1.050*
2018-06-18 00:56:00,-2.442E-01,4C000000*,-703.0,982.385,91,25.4,44.8,0.407,737.8,2.2,1.050*
2018-06-18 00:57:00,-2.373E-01,4C000000*,-703.0,983.597,88,25.4,45.1,0.407,737.8,2.2,1.050*
2018-06-18 00:58:00,-1.809E-01,4C000000*,-703.0,983.193,90,25.4,44.8,0.407,737.8,2.2,1.050*
2018-06-18 00:59:00,-2.542E-01,4C000000*,-702.3,983.193,90,25.4,45.0,0.407,738.1,2.2,1.050*
2018-06-18 01:00:00,-2.619E-01,4C000000*,-703.0,982.789,88,25.5,45.0,0.407,737.8,2.2,1.050*
2018-06-18 01:01:00,-2.718E-01,4C000000*,-702.6,984.406,90,25.4,44.8,0.407,737.8,2.2,1.050*
2018-06-18 01:02:00,-3.070E-01,4C000000*,-702.3,983.597,90,25.4,45.0,0.407,737.8,2.2,1.050*
2018-06-18 01:03:00,-2.196E-01,4C000000*,-702.6,982.789,90,25.4,45.0,0.407,737.8,2.2,1.050*
2018-06-18 01:04:00,-2.746E-01,4C000000*,-703.4,983.597,89,25.4,44.8,0.407,737.8,2.2,1.050*
2018-06-18 01:05:00,-2.541E-01,4C000000*,-703.4,983.597,89,25.5,45.0,0.407,737.8,2.2,1.050*
2018-06-18 01:06:00,-2.438E-01,4C000000*,-703.0,982.385,90,25.4,44.8,0.407,737.8,2.2,1.050*
2018-06-18 01:07:00,-3.256E-01,4C000000*,-703.0,984.406,89,25.5,44.9,0.407,737.8,2.2,1.050*
2018-06-18 01:08:00,-2.814E-01,4C000000*,-703.4,983.597,90,25.5,45.1,0.407,737.8,2.2,1.050*
2018-06-18 01:09:00,-2.148E-01,4C000000*,-703.4,983.193,90,25.4,44.8,0.407,737.8,2.2,1.050*
2018-06-18 01:10:00,-2.746E-01,4C000000*,-703.0,983.193,91,25.4,45.0,0.407,738.1,2.2,1.050*
2018-06-18 01:11:00,-1.712E-01,4C000000*,-703.0,983.597,91,25.5,45.0,0.407,738.1,2.2,1.050*
2018-06-18 01:12:00,-2.356E-01,4C000000*,-702.3,983.193,90,25.4,44.8,0.407,737.8,2.2,1.050*
2018-06-18 01:13:00,-2.924E-01,4C000000*,-702.3,984.002,89,25.4,45.0,0.407,738.1,2.2,1.050*
2018-06-18 01:14:00,-2.753E-01,4C000000*,-703.0,982.385,90,25.5,45.0,0.407,737.8,2.2,1.050*
2018-06-18 01:15:00,-2.590E-01,4C000000*,-702.6,983.597,90,25.5,44.8,0.407,737.8,2.2,1.050*
2018-06-18 01:16:00,-2.173E-01,4C000000*,-703.0,983.597,90,25.5,45.0,0.407,737.8,2.2,1.050*
2018-06-18 01:17:00,-2.044E-01,4C000000*,-702.6,984.002,90,25.5,44.8,0.407,737.8,2.2,1.050*
2018-06-18 01:18:00,-2.439E-01,4C000000*,-703.0,982.385,90,25.5,44.9,0.407,737.8,2.2,1.050*
2018-06-18 01:19:00,-2.916E-01,4C000000*,-703.0,984.406,89,25.5,45.2,0.407,737.8,2.2,1.050*
2018-06-18 01:20:00,-2.432E-01,4C000000*,-703.0,982.385,90,25.5,44.8,0.407,737.8,2.2,1.050*
2018-06-18 01:21:00,-2.373E-01,4C000000*,-702.6,981.980,90,25.5,45.0,0.407,737.8,2.2,1.050*
2018-06-18 01:22:00,-2.746E-01,4C000000*,-703.0,983.193,90,25.5,45.0,0.407,737.8,2.2,1.050*
2018-06-18 01:23:00,-2.873E-01,4C000000*,-703.4,982.385,90,25.5,44.7,0.407,737.8,2.2,1.050*
2018-06-18 01:24:00,-2.383E-01,4C000000*,-703.0,983.597,92,25.5,44.9,0.407,737.8,2.2,1.050*
2018-06-18 01:25:00,-2.517E-01,4C000000*,-703.4,982.789,92,25.5,45.1,0.407,737.8,2.2,1.050*
2018-06-18 01:26:00,-2.801E-01,4C000000*,-702.6,983.193,89,25.6,44.8,0.407,738.1,2.2,1.050*
2018-06-18 01:27:00,-2.839E-01,4C000000*,-702.6,984.810,90,25.5,45.0,0.407,737.8,2.2,1.050*
2018-06-18 01:28:00,-2.296E-01,4C000000*,-703.0,983.193,90,25.5,44.8,0.407,737.8,2.2,1.050*
2018-06-18 01:29:00,-2.229E-01,4C000000*,-703.0,982.385,89,25.5,44.8,0.407,737.8,2.2,1.050*
2018-06-18 01:30:00,-2.059E-01,4C000000*,-703.0,982.789,89,25.5,45.1,0.407,737.8,2.2,1.050*
2018-06-18 01:31:00,-2.386E-01,4C000000*,-702.6,983.193,90,25.5,44.7,0.407,737.8,2.2,1.050*
2018-06-18 01:32:00,-1.887E-01,4C000000*,-703.0,983.597,89,25.5,44.9,0.407,737.8,2.2,1.050*
2018-06-18 01:33:00,-2.993E-01,4C000000*,-703.0,984.002,90,25.6,45.0,0.407,737.8,2.2,1.050*
2018-06-18 01:34:00,-2.886E-01,4C000000*,-703.0,984.002,90,25.6,44.8,0.407,737.8,2.2,1.050*
2018-06-18 01:35:00,-3.076E-01,4C000000*,-703.0,983.193,89,25.6,45.0,0.407,737.8,2.2,1.050*
2018-06-18 01:36:00,-2.646E-01,4C000000*,-703.0,984.002,90,25.6,45.0,0.407,737.8,2.2,1.050*
2018-06-18 01:37:00,-3.054E-01,4C000000*,-703.0,983.193,89,25.6,44.8,0.407,737.8,2.2,1.050*
2018-06-18 01:38:00,-2.753E-01,4C000000*,-703.0,984.406,89,25.6,45.0,0.407,737.8,2.2,1.050*
2018-06-18 01:39:00,-2.044E-01,4C000000*,-702.6,984.002,90,25.6,44.9,0.407,737.8,2.2,1.050*
2018-06-18 01:40:00,-2.978E-01,4C000000*,-703.0,983.193,90,25.6,44.9,0.407,737.8,2.2,1.050*
2018-06-18 01:41:00,-2.055E-01,4C000000*,-702.6,982.789,90,25.7,45.2,0.408,737.8,2.2,1.050*
2018-06-18 01:42:00,-2.307E-01,4C000000*,-702.6,983.193,91,25.6,44.8,0.407,737.5,2.2,1.050*
2018-06-18 01:43:00,-3.220E-01,4C000000*,-703.0,981.172,89,25.6,44.9,0.407,737.8,2.2,1.050*
2018-06-18 01:44:00,-3.042E-01,4C000000*,-703.0,982.789,91,25.6,45.0,0.407,737.8,2.2,1.050*
2018-06-18 01:45:00,-2.937E-01,4C000000*,-703.0,984.406,90,25.6,44.8,0.407,737.8,2.2,1.050*
2018-06-18 01:46:00,-2.367E-01,4C000000*,-703.0,984.002,88,25.6,45.0,0.407,737.8,2.2,1.050*
2018-06-18 01:47:00,-3.419E-01,4C000000*,-702.6,984.810,90,25.6,45.1,0.407,737.8,2.2,1.050*
2018-06-18 01:48:00,-2.404E-01,4C000000*,-703.0,983.193,90,25.7,44.8,0.407,737.8,2.2,1.050*
2018-06-18 01:49:00,-3.030E-01,4C000000*,-702.6,982.789,92,25.7,45.0,0.407,737.8,2.2,1.050*
2018-06-18 01:50:00,-2.341E-01,4C000000*,-702.6,982.385,90,25.6,44.9,0.407,737.8,2.2,1.050*
2018-06-18 01:51:00,-1.914E-01,4C000000*,-703.0,983.193,89,25.6,44.9,0.407,737.8,2.2,1.050*
2018-06-18 01:52:00,-2.769E-01,4C000000*,-702.6,981.576,90,25.6,45.2,0.407,737.8,2.2,1.050*
2018-06-18 01:53:00,-2.610E-01,4C000000*,-702.6,983.597,90,25.6,44.8,0.407,737.8,2.2,1.050*
2018-06-18 01:54:00,-2.524E-01,4C000000*,-702.6,982.789,89,25.6,44.9,0.407,737.8,2.2,1.050*
2018-06-18 01:55:00,-2.413E-01,4C000000*,-703.0,984.002,90,25.6,45.0,0.407,737.8,2.2,1.050*
2018-06-18 01:56:00,-2.664E-01,4C000000*,-703.0,982.789,90,25.6,44.8,0.407,737.8,2.2,1.050*
2018-06-18 01:57:00,-2.359E-01,4C000000*,-702.6,983.597,90,25.6,45.0,0.407,737.5,2.2,1.050*
2018-06-18 01:58:00,-2.128E-01,4C000000*,-702.6,983.193,90,25.6,45.0,0.407,737.8,2.2,1.050*
2018-06-18 01:59:00,-2.902E-01,4C000000*,-702.6,983.193,90,25.6,44.8,0.407,737.8,2.2,1.050*
2018-06-18 02:00:00,-3.274E-01,4C000000*,-703.0,984.002,90,25.6,45.0,0.407,737.8,2.2,1.050*
2018-06-18 02:01:00,-2.848E-01,4C000000*,-702.6,984.002,90,25.6,44.9,0.407,737.5,2.2,1.050*
2018-06-18 02:02:00,-3.458E-01,4C000000*,-702.6,983.597,90,25.6,44.9,0.407,737.5,2.2,1.050*
2018-06-18 02:03:00,-2.874E-01,4C000000*,-702.6,984.002,91,25.6,45.2,0.407,737.5,2.2,1.050*
2018-06-18 02:04:00,-2.853E-01,4C000000*,-702.6,982.789,90,25.6,44.9,0.407,737.5,2.2,1.050*
2018-06-18 02:05:00,-1.876E-01,4C000000*,-702.6,982.789,90,25.6,45.1,0.407,737.5,2.2,1.050*
2018-06-18 02:06:00,-2.871E-01,4C000000*,-702.6,984.002,90,25.6,44.9,0.407,737.5,2.2,1.050*
2018-06-18 02:07:00,-1.722E-01,4C000000*,-703.0,982.789,89,25.6,44.8,0.407,737.5,2.2,1.050*
2018-06-18 02:08:00,-1.460E-01,4C000000*,-703.0,984.002,91,25.7,45.1,0.407,737.8,2.2,1.050*
2018-06-18 02:09:00,-2.703E-01,4C000000*,-702.6,982.789,90,25.7,44.9,0.407,737.5,2.2,1.050*
2018-06-18 02:10:00,-2.536E-01,4C000000*,-703.0,984.002,90,25.6,45.0,0.407,737.5,2.2,1.050*
2018-06-18 02:11:00,-2.684E-01,4C000000*,-703.0,982.789,90,25.6,45.1,0.407,737.8,2.2,1.050*
2018-06-18 02:12:00,-3.104E-01,4C000000*,-703.0,984.002,90,25.7,44.8,0.407,737.5,2.2,1.050*
2018-06-18 02:13:00,-2.023E-01,4C000000*,-703.0,982.789,89,25.7,45.0,0.407,737.8,2.2,1.050*
2018-06-18 02:14:00,-2.991E-01,4C000000*,-703.0,983.193,91,25.6,45.1,0.407,737.5,2.2,1.050*
2018-06-18 02:15:00,-2.714E-01,4C000000*,-703.0,984.406,91,25.7,44.8,0.407,737.5,2.2,1.050*
2018-06-18 02:16:00,-2.972E-01,4C000000*,-703.0,982.789,91,25.6,45.0,0.407,737.5,2.2,1.050*
2018-06-18 02:17:00,-2.772E-01,4C000000*,-703.0,983.597,90,25.6,44.9,0.407,737.5,2.2,1.050*
2018-06-18 02:18:00,-2.725E-01,4C000000*,-703.0,984.002,89,25.6,44.9,0.407,737.5,2.2,1.050*
2018-06-18 02:19:00,-2.645E-01,4C000000*,-703.0,982.385,90,25.7,45.1,0.407,737.5,2.2,1.050*
2018-06-18 02:20:00,-1.857E-01,4C000000*,-703.0,982.789,89,25.7,44.8,0.407,737.5,2.2,1.050*
2018-06-18 02:21:00,-3.198E-01,4C000000*,-703.0,981.576,89,25.6,44.9,0.407,737.5,2.2,1.050*
2018-06-18 02:22:00,-2.716E-01,4C000000*,-703.0,982.789,90,25.7,45.1,0.407,737.5,2.2,1.050*
2018-06-18 02:23:00,-2.576E-01,4C000000*,-703.0,983.597,89,25.7,44.7,0.407,737.5,2.2,1.050*
2018-06-18 02:24:00,-1.687E-01,4C000000*,-703.0,984.002,89,25.6,44.9,0.407,737.5,2.2,1.050*
2018-06-18 02:25:00,-2.929E-01,4C000000*,-703.0,981.980,90,25.6,45.1,0.407,737.5,2.2,1.050*
2018-06-18 02:26:00,-2.908E-01,4C000000*,-703.0,982.789,88,25.7,44.8,0.407,737.5,2.2,1.050*
2018-06-18 02:27:00,-2.625E-01,4C000000*,-703.0,983.597,91,25.7,45.0,0.407,737.8,2.2,1.050*
2018-06-18 02:28:00,-2.883E-01,4C000000*,-703.0,983.597,91,25.7,44.9,0.407,737.5,2.2,1.050*
2018-06-18 02:29:00,-2.899E-01,4C000000*,-702.6,983.193,91,25.7,44.8,0.407,737.5,2.2,1.050*
2018-06-18 02:30:00,-3.329E-01,4C000000*,-702.6,983.193,90,25.7,45.0,0.407,737.5,2.2,1.050*
2018-06-18 02:31:00,-3.064E-01,4C000000*,-702.6,984.406,91,25.7,44.8,0.407,737.5,2.2,1.050*
2018-06-18 02:32:00,-2.150E-01,4C000000*,-703.0,982.789,91,25.7,44.9,0.407,737.5,2.2,1.050*
2018-06-18 02:33:00,-2.933E-01,4C000000*,-702.6,983.193,88,25.7,45.0,0.407,737.5,2.2,1.050*
2018-06-18 02:34:00,-1.806E-01,4C000000*,-703.0,982.789,90,25.7,44.8,0.407,737.5,2.2,1.050*
2018-06-18 02:35:00,-2.659E-01,4C000000*,-703.0,982.789,89,25.7,45.0,0.407,737.5,2.2,1.050*
2018-06-18 02:36:00,-2.498E-01,4C000000*,-702.6,983.597,90,25.8,44.8,0.407,737.5,2.2,1.050*
2018-06-18 02:37:00,-2.001E-01,4C000000*,-702.6,982.385,89,25.7,44.9,0.407,737.5,2.2,1.050*
2018-06-18 02:38:00,-2.940E-01,4C000000*,-702.6,982.789,90,25.8,45.1,0.407,737.2,2.2,1.050*
2018-06-18 02:39:00,-2.792E-01,4C000000*,-703.0,983.193,89,25.7,44.8,0.407,737.5,2.2,1.050*
2018-06-18 02:40:00,-1.875E-01,4C000000*,-703.0,983.597,90,25.7,44.9,0.407,737.5,2.2,1.050*
2018-06-18 02:41:00,-9.648E-02,4C000000*,-703.0,981.980,91,25.7,45.0,0.407,737.5,2.2,1.050*
2018-06-18 02:42:00,-2.934E-01,4C000000*,-702.6,983.597,91,25.6,44.8,0.407,737.5,2.2,1.050*
2018-06-18 02:43:00,-2.942E-01,4C000000*,-703.0,982.789,88,25.7,45.0,0.407,737.8,2.2,1.050*
2018-06-18 02:44:00,-2.759E-01,4C000000*,-702.6,983.597,91,25.7,44.9,0.407,737.5,2.2,1.050*
2018-06-18 02:45:00,-2.162E-01,4C000000*,-702.6,981.980,90,25.7,44.8,0.407,737.5,2.2,1.050*
2018-06-18 02:46:00,-2.438E-01,4C000000*,-703.0,984.406,90,25.7,45.0,0.407,737.5,2.2,1.050*
2018-06-18 02:47:00,-3.585E-01,4C000000*,-702.3,983.193,89,25.7,44.8,0.407,737.2,2.2,1.050*
2018-06-18 02:48:00,-1.949E-01,4C000000*,-702.6,982.385,90,25.7,44.9,0.407,737.5,2.2,1.050*
2018-06-18 02:49:00,-2.127E-01,4C000000*,-703.4,983.193,90,25.6,45.2,0.407,737.5,2.2,1.050*
2018-06-18 02:50:00,-2.607E-01,4C000000*,-703.0,982.789,90,25.7,44.8,0.407,737.5,2.2,1.050*
2018-06-18 02:51:00,-2.121E-01,4C000000*,-703.0,984.002,88,25.6,44.9,0.407,737.5,2.2,1.050*
2018-06-18 02:52:00,-2.245E-01,4C000000*,-702.6,983.193,91,25.7,45.0,0.407,737.2,2.2,1.050*
2018-06-18 02:53:00,-2.035E-01,4C000000*,-702.6,984.406,87,25.7,44.8,0.407,737.5,2.2,1.050*
2018-06-18 02:54:00,-2.545E-01,4C000000*,-703.0,983.193,90,25.7,45.0,0.407,737.5,2.2,1.050*
2018-06-18 02:55:00,-3.013E-01,4C000000*,-703.0,985.215,91,25.8,45.0,0.407,737.5,2.2,1.050*
2018-06-18 02:56:00,-2.987E-01,4C000000*,-703.0,981.980,90,25.7,44.8,0.407,737.5,2.2,1.050*
2018-06-18 02:57:00,-2.374E-01,4C000000*,-702.6,981.980,88,25.7,45.0,0.407,737.5,2.2,1.050*
2018-06-18 02:58:00,-1.516E-01,4C000000*,-703.0,982.789,90,25.7,44.8,0.406,737.5,2.2,1.050*
2018-06-18 02:59:00,-2.528E-01,4C000000*,-702.6,983.193,90,25.7,44.9,0.407,737.5,2.2,1.050*
2018-06-18 03:00:00,-1.862E-01,4C000000*,-703.0,982.789,89,25.7,45.2,0.407,737.2,2.2,1.050*
2018-06-18 03:01:00,-2.766E-01,4C000000*,-703.0,982.789,88,25.7,44.8,0.407,737.5,2.2,1.050*
2018-06-18 03:02:00,-2.222E-01,4C000000*,-702.6,984.406,90,25.7,44.9,0.407,737.5,2.2,1.050*
2018-06-18 03:03:00,-3.006E-01,4C000000*,-703.0,983.597,91,25.8,45.0,0.407,737.5,2.2,1.050*
2018-06-18 03:04:00,-2.573E-01,4C000000*,-703.0,983.193,90,25.7,44.8,0.407,737.5,2.2,1.050*
2018-06-18 03:05:00,-3.044E-01,4C000000*,-702.6,984.406,89,25.7,45.0,0.407,737.2,2.2,1.050*
2018-06-18 03:06:00,-1.751E-01,4C000000*,-702.6,983.193,89,25.7,45.0,0.407,737.5,2.2,1.050*
2018-06-18 03:07:00,-2.361E-01,4C000000*,-703.0,982.789,91,25.7,44.8,0.407,737.5,2.2,1.050*
2018-06-18 03:08:00,-2.592E-01,4C000000*,-703.0,982.385,89,25.8,45.0,0.407,737.5,2.2,1.050*
2018-06-18 03:09:00,-2.767E-01,4C000000*,-703.0,984.002,91,25.8,44.9,0.407,737.2,2.2,1.050*
2018-06-18 03:10:00,-2.447E-01,4C000000*,-703.7,984.406,92,25.7,44.9,0.407,737.2,2.2,1.050*
2018-06-18 03:11:00,-1.962E-01,4C000000*,-702.6,982.385,90,25.7,45.2,0.407,737.2,2.2,1.050*
2018-06-18 03:12:00,-3.276E-01,4C000000*,-702.6,984.002,89,25.7,44.7,0.407,737.5,2.2,1.050*
2018-06-18 03:13:00,-2.713E-01,4C000000*,-703.0,983.597,90,25.7,44.9,0.407,737.5,2.2,1.050*
2018-06-18 03:14:00,-3.121E-01,4C000000*,-703.0,982.789,90,25.7,45.0,0.407,737.2,2.2,1.050*
2018-06-18 03:15:00,-2.193E-01,4C000000*,-702.6,983.193,90,25.7,44.8,0.407,737.5,2.2,1.050*
2018-06-18 03:16:00,-2.728E-01,4C000000*,-702.6,982.385,90,25.9,45.0,0.407,737.5,2.2,1.050*
2018-06-18 03:17:00,-2.497E-01,4C000000*,-703.0,983.193,89,25.8,45.0,0.406,737.2,2.2,1.050*
2018-06-18 03:18:00,-1.844E-01,4C000000*,-703.0,984.002,89,25.8,44.8,0.407,737.2,2.2,1.050*
2018-06-18 03:19:00,-1.954E-01,4C000000*,-702.6,983.597,90,25.8,45.0,0.407,737.5,2.2,1.050*
2018-06-18 03:20:00,-2.668E-01,4C000000*,-702.6,983.597,90,25.7,44.9,0.407,737.2,2.2,1.050*
2018-06-18 03:21:00,-2.326E-01,4C000000*,-703.0,984.002,91,25.8,44.9,0.407,737.5,2.2,1.050*
2018-06-18 03:22:00,-3.132E-01,4C000000*,-702.6,983.597,90,25.8,45.2,0.407,737.2,2.2,1.050*
2018-06-18 03:23:00,-1.867E-01,4C000000*,-703.0,983.193,91,25.7,44.8,0.407,737.5,2.2,1.050*
2018-06-18 03:24:00,-2.158E-01,4C000000*,-702.6,982.385,90,25.7,45.0,0.407,737.5,2.2,1.050*
2018-06-18 03:25:00,-2.012E-01,4C000000*,-702.6,982.789,89,25.8,44.9,0.407,737.2,2.2,1.050*
2018-06-18 03:26:00,-2.829E-01,4C000000*,-703.0,983.193,91,25.8,44.9,0.407,737.2,2.2,1.050*
2018-06-18 03:27:00,-2.310E-01,4C000000*,-703.0,984.002,90,25.8,45.2,0.406,737.5,2.2,1.050*
2018-06-18 03:28:00,-2.588E-01,4C000000*,-703.0,982.789,91,25.7,44.8,0.407,737.5,2.2,1.050*
2018-06-18 03:29:00,-3.144E-01,4C000000*,-702.6,983.597,90,25.8,44.9,0.407,737.5,2.2,1.050*
2018-06-18 03:30:00,-1.883E-01,4C000000*,-703.0,982.385,91,25.8,45.1,0.407,737.2,2.2,1.050*
2018-06-18 03:31:00,-2.380E-01,4C000000*,-703.0,984.406,89,25.8,44.8,0.407,737.5,2.2,1.050*
2018-06-18 03:32:00,-2.068E-01,4C000000*,-702.6,982.789,90,25.8,45.1,0.407,737.2,2.2,1.050*
2018-06-18 03:33:00,-2.999E-01,4C000000*,-703.0,984.810,90,25.8,45.0,0.407,737.2,2.2,1.050*
2018-06-18 03:34:00,-2.634E-01,4C000000*,-703.0,982.789,90,25.8,44.8,0.407,737.2,2.2,1.050*
2018-06-18 03:35:00,-2.158E-01,4C000000*,-702.6,984.002,89,25.8,45.0,0.407,737.5,2.2,1.050*
2018-06-18 03:36:00,-2.943E-01,4C000000*,-702.6,984.406,91,25.8,44.9,0.407,737.2,2.2,1.050*
2018-06-18 03:37:00,-2.185E-01,4C000000*,-702.6,983.597,89,25.8,44.9,0.407,737.2,2.2,1.050*
2018-06-18 03:38:00,-2.543E-01,4C000000*,-702.6,983.193,91,25.8,45.1,0.407,737.2,2.2,1.050*
2018-06-18 03:39:00,-2.494E-01,4C000000*,-703.0,984.406,91,25.9,44.8,0.407,737.2,2.2,1.050*
2018-06-18 03:40:00,-2.690E-01,4C000000*,-702.6,982.385,89,25.8,44.9,0.407,737.2,2.2,1.050*
2018-06-18 03:41:00,-2.929E-01,4C000000*,-703.0,983.597,90,25.8,45.1,0.407,737.2,2.2,1.050*
2018-06-18 03:42:00,-2.472E-01,4C000000*,-703.4,982.789,90,25.8,44.8,0.407,737.2,2.2,1.050*
2018-06-18 03:43:00,-1.444E-01,4C000000*,-703.0,982.789,89,25.7,45.0,0.407,737.2,2.2,1.050*
2018-06-18 03:44:00,-2.542E-01,4C000000*,-702.6,983.597,90,25.8,45.0,0.407,737.2,2.2,1.050*
2018-06-18 03:45:00,-2.770E-01,4C000000*,-702.6,983.193,90,25.7,44.8,0.407,737.2,2.2,1.050*
2018-06-18 03:46:00,-2.757E-01,4C000000*,-703.0,982.385,90,25.8,45.0,0.407,737.2,2.2,1.050*
2018-06-18 03:47:00,-2.058E-01,4C000000*,-703.0,983.193,90,25.7,44.9,0.407,737.2,2.2,1.050*
2018-06-18 03:48:00,-2.469E-01,4C000000*,-703.0,983.193,90,25.8,44.9,0.407,737.2,2.2,1.050*
2018-06-18 03:49:00,-2.235E-01,4C000000*,-703.0,982.385,89,25.9,45.1,0.407,737.2,2.2,1.050*
2018-06-18 03:50:00,-2.162E-01,4C000000*,-702.6,984.002,89,25.8,44.8,0.407,737.2,2.2,1.050*
2018-06-18 03:51:00,-3.438E-01,4C000000*,-703.4,983.597,90,25.9,44.9,0.407,737.2,2.2,1.050*
2018-06-18 03:52:00,-3.223E-01,4C000000*,-702.6,983.193,90,25.8,45.0,0.407,736.9,2.2,1.050*
2018-06-18 03:53:00,-2.488E-01,4C000000*,-702.6,981.980,89,25.8,44.9,0.407,737.2,2.2,1.050*
2018-06-18 03:54:00,-2.837E-01,4C000000*,-702.6,983.193,90,25.8,45.1,0.407,737.2,2.2,1.050*
2018-06-18 03:55:00,-2.725E-01,4C000000*,-702.6,983.597,90,25.8,44.8,0.407,737.2,2.2,1.050*
2018-06-18 03:56:00,-2.902E-01,4C000000*,-703.0,984.002,91,26.0,44.9,0.407,737.2,2.2,1.050*
2018-06-18 03:57:00,-2.236E-01,4C000000*,-702.6,983.597,91,25.9,45.1,0.407,737.2,2.2,1.050*
2018-06-18 03:58:00,-1.793E-01,4C000000*,-703.0,981.576,90,25.8,44.7,0.407,737.2,2.2,1.050*
2018-06-18 03:59:00,-2.239E-01,4C000000*,-702.6,981.980,87,25.9,45.0,0.407,737.2,2.2,1.050*
2018-06-18 04:00:00,-2.323E-01,4C000000*,-703.0,982.789,90,25.9,45.0,0.407,737.2,2.2,1.050*
2018-06-18 04:01:00,-1.784E-01,4C000000*,-703.0,982.385,90,25.9,44.8,0.407,737.2,2.2,1.050*
2018-06-18 04:02:00,-2.922E-01,4C000000*,-702.6,982.385,89,25.9,45.0,0.407,737.2,2.2,1.050*
2018-06-18 04:03:00,-2.293E-01,4C000000*,-702.6,983.193,90,25.9,44.9,0.406,736.9,2.2,1.050*
2018-06-18 04:04:00,-2.909E-01,4C000000*,-703.0,983.193,91,25.8,44.8,0.407,737.5,2.2,1.050*
2018-06-18 04:05:00,-2.545E-01,4C000000*,-703.0,982.789,90,25.9,45.1,0.407,737.2,2.2,1.050*
2018-06-18 04:06:00,-2.111E-01,4C000000*,-702.6,983.193,88,25.9,44.8,0.407,737.2,2.2,1.050*
2018-06-18 04:07:00,-3.035E-01,4C000000*,-702.6,982.789,90,25.9,44.9,0.407,737.2,2.2,1.050*
2018-06-18 04:08:00,-3.044E-01,4C000000*,-703.0,983.193,91,25.9,45.2,0.407,737.2,2.2,1.050*
2018-06-18 04:09:00,-2.599E-01,4C000000*,-702.6,982.789,90,25.9,44.8,0.407,737.5,2.2,1.050*
2018-06-18 04:10:00,-2.855E-01,4C000000*,-703.0,982.789,90,25.9,45.0,0.407,737.2,2.2,1.050*
2018-06-18 04:11:00,-2.514E-01,4C000000*,-703.0,984.002,90,25.8,45.0,0.407,737.2,2.2,1.050*
2018-06-18 04:12:00,-2.265E-01,4C000000*,-702.6,983.193,89,25.8,44.8,0.407,737.2,2.2,1.050*
2018-06-18 04:13:00,-3.538E-01,4C000000*,-703.0,983.193,90,25.9,45.0,0.407,737.2,2.2,1.050*
2018-06-18 04:14:00,-3.477E-01,4C000000*,-702.6,983.597,89,25.9,45.0,0.407,737.2,2.2,1.050*